Almeria, Spain

4:28 PM CET on March 23, 2017 (GMT +0100)
Almeria

Weather History for LEAM - December, 2013

Change the Weather History Date:

Monday, December 2, 2013

  Actual Average Record
Temperature  
Mean Temperature 56 °F -  
Max Temperature 64 °F 60 °F 69 °F (1999)
Min Temperature 48 °F 48 °F 44 °F (2003)
Degree Days  
Heating Degree Days 9    
Growing Degree Days 6 (Base 50)    
Moisture  
Dew Point 39 °F    
Average Humidity 50    
Maximum Humidity 76    
Minimum Humidity 28    
Precipitation  
Precipitation 0.00 in 0.03 in - ()
Sea Level Pressure  
Sea Level Pressure 30.11 in    
Wind  
Wind Speed 7 mph ()    
Max Wind Speed 14 mph    
Max Gust Speed -    
Visibility 6.2 miles    
Events      
Averages and records for this station are not official NWS values.
T = Trace of Precipitation, MM = Missing Value Source: Averaged Metar Reports

Daily Weather History Graph

Daily Weather History Graph

Search for Another Location

Airport or City:

Trip Planner

Search our weather history database for the weather conditions in past years. The results will help you decide how hot, cold, wet, or windy it might be!

Date:

Astronomy

Dec. 02, 2013 Rise Set
Actual Time 8:04 AM CET 5:53 PM CET
Civil Twilight 7:36 AM CET 6:21 PM CET
Nautical Twilight 7:04 AM CET 6:53 PM CET
Astronomical Twilight 6:32 AM CET 7:25 PM CET
Moon 7:14 AM CET (12/2) 5:41 PM CET (12/2)
Length of Visible Light 10h 45m
Length of Day
9h 48m
Waning Crescent, 0% of the Moon is Illuminated
Dec 2
Waning Crescent
Dec 3
New
Dec 9
First Quarter
Dec 17
Full
Dec 25
Last Quarter

Hourly Weather History & Observations

Time (CET) Temp. Dew Point Humidity Pressure Visibility Wind Dir Wind Speed Gust Speed Precip Events Conditions
12:00 AM 52 °F 35 °F 41% 30.07 in - ENE 1.2 mph - -  
1:00 AM 53 °F 33 °F 35% 30.06 in - NNW 5.8 mph - -  
2:00 AM 53 °F 33 °F 34% 30.06 in - NNW 8.1 mph - -  
3:00 AM 53 °F 33 °F 34% 30.07 in - NNW 9.2 mph - -  
5:00 AM 52 °F 32 °F 34% 30.07 in - NNW 10.4 mph - -  
5:00 AM 51.8 °F 32.0 °F 47% 30.06 in 6.2 mi NNW 9.2 mph - N/A   Partly Cloudy
5:30 AM 50.0 °F 32.0 °F 50% 30.06 in 6.2 mi NW 9.2 mph - N/A   Partly Cloudy
6:00 AM 50 °F 33 °F 39% 30.08 in - NNW 10.4 mph - -  
6:30 AM 50.0 °F 32.0 °F 50% 30.06 in 6.2 mi NW 11.5 mph - N/A   Partly Cloudy
7:00 AM 49 °F 32 °F 40% 30.09 in 31 mi NW 13.8 mph - -   Scattered Clouds
7:00 AM 50.0 °F 32.0 °F 50% 30.06 in 6.2 mi NNW 12.7 mph - N/A   Partly Cloudy
7:30 AM 48.2 °F 32.0 °F 54% 30.09 in 6.2 mi NW 10.4 mph - N/A   Partly Cloudy
8:00 AM 48 °F 33 °F 43% 30.10 in - NW 13.8 mph - -  
8:00 AM 48.2 °F 32.0 °F 54% 30.09 in 6.2 mi NW 12.7 mph - N/A   Partly Cloudy
8:30 AM 48.2 °F 32.0 °F 54% 30.09 in 6.2 mi NNW 12.7 mph - N/A   Partly Cloudy
9:00 AM 50 °F 33 °F 39% 30.12 in - NW 13.8 mph - -  
9:00 AM 50.0 °F 32.0 °F 50% 30.09 in 6.2 mi NW 12.7 mph - N/A   Partly Cloudy
9:30 AM 51.8 °F 32.0 °F 47% 30.12 in 6.2 mi NNW 11.5 mph - N/A   Partly Cloudy
10:00 AM 53.6 °F 32.0 °F 44% 30.12 in - NW 11.5 mph - N/A   Clear
10:30 AM 55.4 °F 32.0 °F 41% 30.12 in - NW 10.4 mph - N/A   Clear
11:00 AM 59 °F 35 °F 28% 30.14 in - NW 6.9 mph - -  
11:00 AM 60.8 °F 33.8 °F 36% 30.12 in 6.2 mi NW 5.8 mph - N/A   Partly Cloudy
11:30 AM 60.8 °F 35.6 °F 39% 30.12 in 6.2 mi NW 4.6 mph - N/A   Partly Cloudy
12:00 PM 63 °F 38 °F 28% 30.12 in - SSE 2.3 mph - -  
12:00 PM 62.6 °F 37.4 °F 39% 30.12 in 6.2 mi Variable 1.2 mph - N/A   Partly Cloudy
12:30 PM 60.8 °F 39.2 °F 45% 30.09 in 6.2 mi SSE 5.8 mph - N/A   Partly Cloudy
1:00 PM 63 °F 40 °F 31% 30.10 in 31 mi South 4.6 mph - -   Scattered Clouds
1:00 PM 62.6 °F 39.2 °F 42% 30.09 in 6.2 mi South 4.6 mph - N/A   Partly Cloudy
1:30 PM 62.6 °F 39.2 °F 42% 30.09 in 6.2 mi South 4.6 mph - N/A   Partly Cloudy
2:00 PM 63 °F 45 °F 40% 30.10 in - SSE 9.2 mph - -  
2:00 PM 62.6 °F 39.2 °F 42% 30.09 in 6.2 mi South 4.6 mph - N/A   Partly Cloudy
2:30 PM 62.6 °F 39.2 °F 42% 30.09 in 6.2 mi South 11.5 mph - N/A   Partly Cloudy
3:00 PM 63 °F 46 °F 42% 30.09 in - SSE 10.4 mph - -  
3:00 PM 62.6 °F 39.2 °F 42% 30.09 in 6.2 mi South 11.5 mph - N/A   Partly Cloudy
4:30 PM 60.8 °F 46.4 °F 59% 30.09 in 6.2 mi SSE 9.2 mph - N/A   Partly Cloudy
5:00 PM 60 °F 46 °F 50% 30.12 in - SSE 10.4 mph - -  
5:00 PM 59.0 °F 46.4 °F 63% 30.12 in 6.2 mi SSE 10.4 mph - N/A   Partly Cloudy
5:30 PM 59.0 °F 46.4 °F 63% 30.12 in 6.2 mi SSE 10.4 mph - N/A   Partly Cloudy
6:00 PM 59 °F 47 °F 53% 30.15 in - SE 9.2 mph - -  
6:00 PM 59.0 °F 46.4 °F 63% 30.12 in 6.2 mi SE 9.2 mph - N/A   Partly Cloudy
6:30 PM 57.2 °F 46.4 °F 67% 30.15 in 6.2 mi East 3.5 mph - N/A   Partly Cloudy
7:00 PM 56 °F 46 °F 60% 30.16 in 31 mi ENE 4.6 mph - -   Scattered Clouds
7:00 PM 55.4 °F 46.4 °F 72% 30.15 in 6.2 mi ENE 4.6 mph - N/A   Partly Cloudy
7:30 PM 57.2 °F 46.4 °F 67% 30.15 in 6.2 mi NNE 5.8 mph - N/A   Partly Cloudy
8:00 PM 55 °F 45 °F 61% 30.18 in - NNE 5.8 mph - -  
8:00 PM 55.4 °F 44.6 °F 67% 30.15 in 6.2 mi NNE 4.6 mph - N/A   Partly Cloudy
8:30 PM 53.6 °F 44.6 °F 72% 30.18 in 6.2 mi North 6.9 mph - N/A   Partly Cloudy
9:00 PM 54 °F 45 °F 63% 30.19 in - North 5.8 mph - -  
9:00 PM 53.6 °F 44.6 °F 72% 30.18 in 6.2 mi NNE 5.8 mph - N/A   Partly Cloudy
9:30 PM 53.6 °F 44.6 °F 72% 30.18 in 6.2 mi North 6.9 mph - N/A   Partly Cloudy
10:00 PM 51.8 °F 42.8 °F 71% 30.18 in 6.2 mi North 6.9 mph - N/A   Partly Cloudy
10:30 PM 51.8 °F 44.6 °F 76% 30.18 in 6.2 mi North 8.1 mph - N/A   Partly Cloudy
11:00 PM 53 °F 44 °F 62% 30.21 in - NNW 8.1 mph - -